Weather History for KBFL - October, 2013

Change the Weather History Date:

Thursday, October 10, 2013

  Actual Average Record
Temperature  
Mean Temperature 62 °F 70 °F  
Max Temperature 74 °F 82 °F 101 °F (1991)
Min Temperature 50 °F 57 °F 34 °F (1908)
Degree Days  
Heating Degree Days 3    
Month to date heating degree days 7  
Since 1 July heating degree days 9  
Cooling Degree Days 0    
Month to date cooling degree days 38  
Year to date cooling degree days 2518  
Growing Degree Days 12 (Base 50)    
Moisture  
Dew Point 40 °F    
Average Humidity 49    
Maximum Humidity 71    
Minimum Humidity 27    
Precipitation  
Precipitation 0.00 in 0.00 in 0.35 in (1916)
Month to date precipitation T 0.05  
Year to date precipitation 2.36 4.56  
Since 1 July precipitation T 0.17  
Snow  
Snow 0.00 in - - ()
Month to date snowfall 0.0  
Since 1 July snowfall 0.0  
Since 1 September snowfall 0.0  
Snow Depth 0.00 in    
Sea Level Pressure  
Sea Level Pressure 29.90 in    
Wind  
Wind Speed 5 mph (ESE)    
Max Wind Speed 13 mph    
Max Gust Speed 16 mph    
Visibility 10 miles    
Events      
T = Trace of Precipitation, MM = Missing Value Source: NWS Daily Summary

Daily Weather History Graph

Daily Weather History Graph

Search for Another Location

Airport or City:

Trip Planner

Search our weather history database for the weather conditions in past years. The results will help you decide how hot, cold, wet, or windy it might be!

Date:

Astronomy

Oct. 10, 2013 Rise Set
Actual Time 6:58 AM PDT 6:27 PM PDT
Civil Twilight 6:33 AM PDT 6:52 PM PDT
Nautical Twilight 6:03 AM PDT 7:21 PM PDT
Astronomical Twilight 5:34 AM PDT 7:51 PM PDT
Moon 12:46 PM PDT (10/10) 11:17 PM PDT (10/10)
Length of Visible Light 12h 19m
Length of Day
11h 28m
Waxing Crescent, 37% of the Moon is Illuminated
Oct 10
Waxing Crescent
Oct 11
First Quarter
Oct 18
Full
Oct 26
Last Quarter
Nov 3
New

Hourly Weather History & Observations

Time (PDT) Temp. Dew Point Humidity Pressure Visibility Wind Dir Wind Speed Gust Speed Precip Events Conditions
12:54 AM 55.9 °F 43.0 °F 62% 29.81 in 10.0 mi ESE 4.6 mph - N/A   Overcast
1:54 AM 55.9 °F 44.1 °F 64% 29.81 in 10.0 mi ESE 5.8 mph - N/A   Mostly Cloudy
2:54 AM 54.0 °F 44.1 °F 69% 29.81 in 10.0 mi ESE 4.6 mph - N/A   Clear
3:54 AM 54.0 °F 43.0 °F 66% 29.83 in 10.0 mi East 5.8 mph - N/A   Clear
4:54 AM 54.0 °F 43.0 °F 66% 29.83 in 10.0 mi East 5.8 mph - N/A   Clear
5:54 AM 53.1 °F 42.1 °F 66% 29.85 in 10.0 mi East 4.6 mph - N/A   Clear
6:54 AM 51.1 °F 42.1 °F 71% 29.86 in 10.0 mi SE 4.6 mph - N/A   Clear
7:54 AM 52.0 °F 42.1 °F 69% 29.90 in 10.0 mi Calm Calm - N/A   Clear
8:54 AM 60.1 °F 41.0 °F 49% 29.93 in 10.0 mi ESE 5.8 mph - N/A   Mostly Cloudy
9:54 AM 62.1 °F 41.0 °F 46% 29.94 in 10.0 mi SE 8.1 mph - N/A   Clear
10:54 AM 64.9 °F 41.0 °F 42% 29.94 in 10.0 mi SSE 4.6 mph - N/A   Clear
11:54 AM 66.9 °F 41.0 °F 39% 29.95 in 10.0 mi SSE 5.8 mph - N/A   Clear
12:54 PM 69.1 °F 39.9 °F 35% 29.93 in 10.0 mi Variable 5.8 mph - N/A   Clear
1:54 PM 70.0 °F 39.0 °F 32% 29.92 in 10.0 mi Variable 3.5 mph - N/A   Clear
2:54 PM 72.0 °F 39.9 °F 31% 29.91 in 10.0 mi West 5.8 mph - N/A   Clear
3:54 PM 72.0 °F 39.0 °F 30% 29.92 in 10.0 mi WNW 8.1 mph - N/A   Clear
4:54 PM 73.0 °F 37.9 °F 28% 29.91 in 10.0 mi NW 8.1 mph - N/A   Clear
5:54 PM 71.1 °F 39.0 °F 31% 29.91 in 10.0 mi NW 5.8 mph - N/A   Clear
6:54 PM 69.1 °F 39.0 °F 33% 29.92 in 10.0 mi North 3.5 mph - N/A   Clear
7:54 PM 66.0 °F 37.0 °F 34% 29.92 in 10.0 mi ENE 5.8 mph - N/A   Clear
8:54 PM 64.9 °F 37.9 °F 37% 29.95 in 10.0 mi Calm Calm - N/A   Clear
9:54 PM 61.0 °F 37.0 °F 41% 29.96 in 10.0 mi Calm Calm - N/A   Clear
10:54 PM 59.0 °F 37.9 °F 46% 29.97 in 10.0 mi Calm Calm - N/A   Clear
11:54 PM 61.0 °F 39.0 °F 44% 29.97 in 10.0 mi East 3.5 mph - N/A   Clear